Regional Weather Roundup
Issued by NWS

Home | Current Version | Previous Version | Text Only | Print | Product List | Glossary Off
Versions: 1 2 3 4 5 6 7 8 9 10 11 12 13 14 15 16 17 18 19 20 21 22 23 24 25 26 27 28 29 30 31 32 33 34 35 36 37 38 39 40 41 42 43 44 45 46 47 48 49 50

000
ASUS43 KBIS 101159
RWRND

NORTH DAKOTA REGIONAL WEATHER ROUNDUP
NATIONAL WEATHER SERVICE BISMARCK ND
700 AM CDT THU JUL 10 2014

NOTE: "FAIR" INDICATES FEW OR NO CLOUDS BELOW 12,000 FEET WITH NO
SIGNIFICANT WEATHER AND/OR OBSTRUCTIONS TO VISIBILITY.


NDZ001>003-009>011-017-101300-
NORTHWEST NORTH DAKOTA

CITY           SKY/WX    TMP DP  RH WIND       PRES   REMARKS
WILLISTON      CLOUDY    67  55  65 S6        29.80R
6HR MIN TEMP:  66; 6HR MAX TEMP:  71;

MINOT          FAIR      65  58  78 S16G23    29.83S HAZE
$$

NDZ018>021-031>035-040>046-101300-
SOUTHWEST NORTH DAKOTA

CITY           SKY/WX    TMP DP  RH WIND       PRES   REMARKS
BISMARCK       PTCLDY    60  56  86 S6        29.90S
6HR MIN TEMP:  59; 6HR MAX TEMP:  65;

DICKINSON      CLOUDY    61  56  83 SE9       29.84S
GARRISON         N/A     63  59  87 S9        29.85S
6HR MIN TEMP:  62; 6HR MAX TEMP:  65;

HETTINGER ARPT CLOUDY    59  55  87 SE8       29.88F
$$

NDZ004>008-012>016-024-026-027-054-101300-
NORTHEAST NORTH DAKOTA

CITY           SKY/WX    TMP DP  RH WIND       PRES   REMARKS
GRAND FORKS    FAIR      57  53  86 SE6       29.94S
DEVILS LAKE    FAIR      63  54  72 S10       29.89S
$$

NDZ022-023-025-028>030-036>039-047>053-101300-
SOUTHEAST NORTH DAKOTA

CITY           SKY/WX    TMP DP  RH WIND       PRES   REMARKS
FARGO          FAIR      62  52  69 SE9       29.96S
6HR MIN TEMP:  61; 6HR MAX TEMP:  63;

$$



USA.gov is the U.S. government's official web portal to all federal, state and local government web resources and services.